Regional Weather Roundup
Issued by NWS

Home | Current Version | Previous Version | Graphics & Text | Print | Product List | Glossary On
Versions: 1 2 3 4 5 6 7 8 9 10 11 12 13 14 15 16 17 18 19 20 21 22 23 24 25 26 27 28 29 30 31 32 33 34 35 36 37 38 39 40 41 42 43 44 45 46 47 48 49 50
000
ASUS43 KDTX 270610
RWRMI
MICHIGAN HOURLY REGIONAL WEATHER ROUNDUP
NATIONAL WEATHER SERVICE DETROIT/PONTIAC MI
200 AM EDT WED AUG 27 2014

NOTE: "FAIR" INDICATES FEW OR NO CLOUDS BELOW 12,000 FEET WITH NO
SIGNIFICANT WEATHER AND/OR OBSTRUCTION TO VISIBILITY.

MIZ047>049-052>055-059>063-066>070-074>076-081>083-270700-
SOUTHEAST LOWER MICHIGAN

CITY           SKY/WX    TMP DP  RH WIND       PRES   REMARKS
ADRIAN         MOCLDY    70  68  93 N7        30.10S
6HR MIN TEMP:  68; 6HR MAX TEMP:  77;

ALMA             N/A     62  59  91 N5        30.12R
ANN ARBOR        N/A     69  65  86 NW7       30.09S
BAD AXE        CLOUDY    63  60  88 NE5       30.12R
6HR MIN TEMP:  63; 6HR MAX TEMP:  77;

DETROIT CITY   CLOUDY    73  68  84 NW5       30.08R
6HR MIN TEMP:  72; 6HR MAX TEMP:  74;

DETROIT        MOCLDY    70  68  93 W8        30.08S
6HR MIN TEMP:  70; 6HR MAX TEMP:  73;

FLINT            N/A     68  64  87 NW6       30.09R
6HR MIN TEMP:  68; 6HR MAX TEMP:  74;

GROSSE ILE       N/A     70  66  88 NW3       30.06F
HILLSDALE      MOCLDY    70  70 100 NW3       30.11F FOG
6HR MIN TEMP:  69; 6HR MAX TEMP:  77;

HOWELL           N/A     65  64  99 W3        30.10S FOG
6HR MIN TEMP:  65; 6HR MAX TEMP:  70;


CITY           SKY/WX    TMP DP  RH WIND       PRES   REMARKS
JACKSON          N/A     66  64  93 W3        30.11R
6HR MIN TEMP:  66; 6HR MAX TEMP:  71;

LAMBERTVILLE     N/A     70  66  88 CALM      30.09S
LANSING          N/A     63  61  93 NW6       30.11R
6HR MIN TEMP:  63; 6HR MAX TEMP:  73;

LAPEER         NOT AVBL
MASON            N/A     65  63  94 W3        30.11S
MONROE           N/A     68  66  94 CALM      30.07S
MT. CLEMENS    CLOUDY    69  67  93 NE7       30.07R
6HR MIN TEMP:  69; 6HR MAX TEMP:  72;

PONTIAC          N/A     69  66  90 W6        30.09R
6HR MIN TEMP:  69; 6HR MAX TEMP:  71;

PORT HOPE        N/A     65  56  72 N9        30.09S
6HR MIN TEMP:  65; 6HR MAX TEMP:  68;

PORT HURON     MOCLDY    66  63  88 N3        30.09S
TRI CITIES     CLOUDY    68  64  87 N6        30.11S
6HR MIN TEMP:  66; 6HR MAX TEMP:  79;

YPSILANTI        N/A     73  67  81 NW8       30.09S
6HR MIN TEMP:  73; 6HR MAX TEMP:  76;

$$
MIZ043>046-050>051-056>058-064>065-071>073-077>080-270700-
SOUTHWEST LOWER MICHIGAN

CITY           SKY/WX    TMP DP  RH WIND       PRES   REMARKS
BATTLE CREEK     N/A     66  61  84 NW5       30.12F
6HR MIN TEMP:  65; 6HR MAX TEMP:  74;

BENTON HARBOR    N/A     61  60  97 CALM      30.12S FOG
6HR MIN TEMP:  60; 6HR MAX TEMP:  69;

BIG RAPIDS       N/A     57  57 100 CALM      30.12S
6HR MIN TEMP:  57; 6HR MAX TEMP:  71;

COLDWATER      MOCLDY    70  68  93 NW3       30.12R
6HR MIN TEMP:  69; 6HR MAX TEMP:  74;

HOLLAND          N/A     61  59  93 CALM      30.14R FOG
6HR MIN TEMP:  61; 6HR MAX TEMP:  71;

GRAND RAPIDS     N/A     64  62  93 CALM      30.13R
6HR MIN TEMP:  62; 6HR MAX TEMP:  72;

KALAMAZOO        N/A     65  62  90 N5        30.12S
6HR MIN TEMP:  64; 6HR MAX TEMP:  75;

MARSHALL         N/A     65  63  92 CALM      30.11S
MUSKEGON         N/A     61  58  90 CALM      30.12S
6HR MIN TEMP:  60; 6HR MAX TEMP:  71;

$$
MIZ016>042-270700-
NORTHERN LOWER MICHIGAN

CITY           SKY/WX    TMP DP  RH WIND       PRES   REMARKS
ALPENA           N/A     54  51  90 NW3       30.12R
6HR MIN TEMP:  53; 6HR MAX TEMP:  66;

BEAVER ISLAND    N/A     57  51  82 CALM      30.13S
6HR MIN TEMP:  56; 6HR MAX TEMP:  66;

BELLAIRE         N/A     54  53  96 CALM      30.12R
6HR MIN TEMP:  52; 6HR MAX TEMP:  66;

CADILLAC       FOG       53  51  95 CALM      30.12F VSB 3/4
CHARLEVOIX       N/A     60  53  78 NE6       30.15S
6HR MIN TEMP:  59; 6HR MAX TEMP:  66;

FRANKFORT        N/A     57  53  88 CALM      30.13R
GAYLORD          N/A     56  52  86 NE5       30.13S
6HR MIN TEMP:  56; 6HR MAX TEMP:  65;

GRAYLING         N/A     54  54 100 CALM      30.14R
6HR MIN TEMP:  51; 6HR MAX TEMP:  69;

HARBOR SPRINGS   N/A     55  51  87 CALM      30.13S
HOUGHTON LAKE    N/A     55  53  93 CALM      30.12F
6HR MIN TEMP:  53; 6HR MAX TEMP:  71;

MANISTEE       CLOUDY    54  52  94 CALM      30.13S VSB 1/4
OSCODA           N/A     57  53  88 N3        30.11R
PELLSTON         N/A     49  47  93 CALM      30.13S
6HR MIN TEMP:  48; 6HR MAX TEMP:  66;

TRAVERSE CITY    N/A     58  54  86 CALM      30.11R
6HR MIN TEMP:  56; 6HR MAX TEMP:  70;

$$
MIZ007>008-015-270700-
EASTERN UPPER MICHIGAN

CITY           SKY/WX    TMP DP  RH WIND       PRES   REMARKS
KINROSS          N/A     52  52 100 W6        30.11S
6HR MIN TEMP:  52; 6HR MAX TEMP:  59;

MACKINAC ISLAN   N/A     54  51  87 CALM      30.11S
6HR MIN TEMP:  54; 6HR MAX TEMP:  62;

NEWBERRY         N/A     47  46  94 W5        30.11F
S. S. MARIE      N/A     51  48  89 W3        30.10R
6HR MIN TEMP:  51; 6HR MAX TEMP:  59;

$$
MIZ004>006-011>014-085-270700-
CENTRAL UPPER MICHIGAN

CITY           SKY/WX    TMP DP  RH WIND       PRES   REMARKS
MANISTIQUE       N/A     49  47  95 CALM      30.13R
ESCANABA         N/A     52  46  82 NW5       30.14S
6HR MIN TEMP:  50; 6HR MAX TEMP:  70;

MENOMINEE        N/A     57  50  77 NE3       30.14R
6HR MIN TEMP:  57; 6HR MAX TEMP:  70;

SAWYER-GWINN     N/A     49  46  86 NW5       30.14R
$$
MIZ001>003-009>011-084-270700-
WESTERN UPPER MICHIGAN

CITY           SKY/WX    TMP DP  RH WIND       PRES   REMARKS
IRON MOUNTAIN    N/A     51  48  89 CALM      30.15R
6HR MIN TEMP:  51; 6HR MAX TEMP:  69;

HOUGHTON       CLOUDY    57  50  77 NW5       30.14R
6HR MIN TEMP:  56; 6HR MAX TEMP:  60;

COPPER HARBOR    N/A     58  47  66 VRB6      30.13R
6HR MIN TEMP:  54; 6HR MAX TEMP:  61;

$$

ABBREVIATIONS USED IN REMARKS
   TC - TEMPERATURE IN CELSIUS
  WCI - WIND CHILL INDEX
   HX - HEAT INDEX
  VSB - VISIBILITY




USA.gov is the U.S. government's official web portal to all federal, state and local government web resources and services.